Time,TemperatureF,DewpointF,PressureIn,WindDirection,WindDirectionDegrees,WindSpeedMPH,WindSpeedGustMPH,Humidity,HourlyPrecipIn,Conditions,Clouds,dailyrainin,SoftwareType,DateUTC
2014-09-20 00:02:00,61.0,58.0,29.87,SSW,203,5.0,-999.0,90,-99.99,,,-99.99,,2014-09-20 07:02:00,
2014-09-20 00:23:00,61.0,58.0,29.87,SSW,196,3.0,-999.0,90,-99.99,,,-99.99,,2014-09-20 07:23:00,
2014-09-20 00:32:00,61.0,58.0,29.87,SSW,196,3.0,-999.0,90,-99.99,,,-99.99,,2014-09-20 07:32:00,
2014-09-20 00:42:00,61.0,58.0,29.87,SSW,196,3.0,-999.0,90,-99.99,,,-99.99,,2014-09-20 07:42:00,
2014-09-20 00:53:00,61.0,58.0,29.87,SSW,209,5.0,-999.0,90,-99.99,,,-99.99,,2014-09-20 07:53:00,
2014-09-20 01:02:00,61.0,58.0,29.87,SSW,209,5.0,-999.0,90,-99.99,,,-99.99,,2014-09-20 08:02:00,
2014-09-20 01:12:00,61.0,58.0,29.87,SSW,209,5.0,-999.0,90,-99.99,,,-99.99,,2014-09-20 08:12:00,
2014-09-20 01:22:00,61.0,58.0,29.88,SW,230,3.0,-999.0,90,-99.99,,,-99.99,,2014-09-20 08:22:00,
2014-09-20 01:32:00,61.0,58.0,29.88,SW,230,3.0,-999.0,90,-99.99,,,-99.99,,2014-09-20 08:32:00,
2014-09-20 01:42:00,61.0,58.0,29.88,SW,230,3.0,-999.0,90,-99.99,,,-99.99,,2014-09-20 08:42:00,
2014-09-20 01:52:00,61.0,58.0,29.88,SSW,201,3.0,-999.0,90,-99.99,,,-99.99,,2014-09-20 08:52:00,
2014-09-20 02:02:00,61.0,58.0,29.88,SSW,201,3.0,-999.0,90,-99.99,,,-99.99,,2014-09-20 09:02:00,
2014-09-20 02:22:00,61.0,58.0,29.88,South,191,2.0,-999.0,90,-99.99,,,-99.99,,2014-09-20 09:22:00,
2014-09-20 02:34:00,61.0,58.0,29.88,South,191,2.0,-999.0,90,-99.99,,,-99.99,,2014-09-20 09:34:00,
2014-09-20 02:54:00,61.0,58.0,29.88,SSW,202,3.0,-999.0,90,-99.99,,,-99.99,,2014-09-20 09:54:00,
2014-09-20 03:03:00,61.0,58.0,29.88,SSW,202,3.0,-999.0,90,-99.99,,,-99.99,,2014-09-20 10:03:00,
2014-09-20 03:13:00,61.0,58.0,29.88,SSW,202,3.0,-999.0,90,-99.99,,,-99.99,,2014-09-20 10:13:00,
2014-09-20 03:23:00,60.0,57.0,29.87,SSW,200,2.0,-999.0,90,-99.99,,,-99.99,,2014-09-20 10:23:00,
2014-09-20 03:32:00,60.0,57.0,29.87,SSW,200,2.0,-999.0,90,-99.99,,,-99.99,,2014-09-20 10:32:00,
2014-09-20 03:54:00,60.0,57.0,29.87,SSW,204,3.0,-999.0,90,-99.99,,,-99.99,,2014-09-20 10:54:00,
2014-09-20 04:03:00,60.0,57.0,29.87,SSW,204,3.0,-999.0,90,-99.99,,,-99.99,,2014-09-20 11:03:00,
2014-09-20 04:23:00,60.0,57.0,29.86,SSW,206,4.0,-999.0,90,-99.99,,,-99.99,,2014-09-20 11:23:00,
2014-09-20 04:32:00,60.0,57.0,29.86,SSW,206,4.0,-999.0,90,-99.99,,,-99.99,,2014-09-20 11:32:00,
2014-09-20 04:43:00,60.0,57.0,29.86,SSW,206,4.0,-999.0,90,-99.99,,,-99.99,,2014-09-20 11:43:00,
2014-09-20 04:52:00,60.0,57.0,29.87,SW,225,3.0,-999.0,90,-99.99,,,-99.99,,2014-09-20 11:52:00,
2014-09-20 05:02:00,60.0,57.0,29.87,SW,225,3.0,-999.0,90,-99.99,,,-99.99,,2014-09-20 12:02:00,
2014-09-20 05:22:00,60.0,57.0,29.87,SW,226,3.0,-999.0,90,-99.99,,,-99.99,,2014-09-20 12:22:00,
2014-09-20 05:32:00,60.0,57.0,29.87,SW,226,3.0,-999.0,90,-99.99,,,-99.99,,2014-09-20 12:32:00,
2014-09-20 05:52:00,60.0,57.0,29.87,SW,229,3.0,-999.0,90,-99.99,,,-99.99,,2014-09-20 12:52:00,
2014-09-20 06:12:00,60.0,57.0,29.87,SW,229,3.0,-999.0,90,-99.99,,,-99.99,,2014-09-20 13:12:00,
2014-09-20 06:22:00,60.0,57.0,29.87,SSW,202,2.0,-999.0,90,-99.99,,,-99.99,,2014-09-20 13:22:00,
2014-09-20 06:32:00,60.0,57.0,29.87,SSW,202,2.0,-999.0,90,-99.99,,,-99.99,,2014-09-20 13:32:00,
2014-09-20 06:52:00,59.0,56.0,29.88,SW,215,3.0,-999.0,90,-99.99,,,-99.99,,2014-09-20 13:52:00,
2014-09-20 07:02:00,59.0,56.0,29.88,SW,215,3.0,-999.0,90,-99.99,,,-99.99,,2014-09-20 14:02:00,
2014-09-20 07:12:00,59.0,56.0,29.88,SW,215,3.0,-999.0,90,-99.99,,,-99.99,,2014-09-20 14:12:00,
2014-09-20 07:22:00,60.0,57.0,29.88,SSW,196,2.0,-999.0,90,-99.99,,,-99.99,,2014-09-20 14:22:00,
2014-09-20 07:32:00,60.0,57.0,29.88,SSW,196,2.0,-999.0,90,-99.99,,,-99.99,,2014-09-20 14:32:00,
2014-09-20 07:43:00,60.0,57.0,29.88,SSW,196,2.0,-999.0,90,-99.99,,,-99.99,,2014-09-20 14:43:00,
2014-09-20 07:52:00,60.0,57.0,29.89,SW,225,4.0,-999.0,90,-99.99,,,-99.99,,2014-09-20 14:52:00,
2014-09-20 08:02:00,60.0,57.0,29.89,SW,225,4.0,-999.0,90,-99.99,,,-99.99,,2014-09-20 15:02:00,
2014-09-20 08:12:00,60.0,57.0,29.89,SW,225,4.0,-999.0,90,-99.99,,,-99.99,,2014-09-20 15:12:00,
2014-09-20 08:22:00,60.0,57.0,29.91,SSE,150,2.0,-999.0,90,-99.99,,,-99.99,,2014-09-20 15:22:00,
2014-09-20 08:34:00,60.0,57.0,29.91,SSE,150,2.0,-999.0,90,-99.99,,,-99.99,,2014-09-20 15:34:00,
2014-09-20 08:44:00,60.0,57.0,29.91,SSE,150,2.0,-999.0,90,-99.99,,,-99.99,,2014-09-20 15:44:00,
2014-09-20 08:54:00,60.0,57.0,29.92,SSE,164,2.0,-999.0,90,-99.99,,,-99.99,,2014-09-20 15:54:00,
2014-09-20 09:04:00,60.0,57.0,29.92,SSE,164,2.0,-999.0,90,-99.99,,,-99.99,,2014-09-20 16:04:00,
2014-09-20 09:23:00,60.0,57.0,29.92,South,180,2.0,-999.0,90,-99.99,,,-99.99,,2014-09-20 16:23:00,
2014-09-20 09:33:00,60.0,57.0,29.92,South,180,2.0,-999.0,90,-99.99,,,-99.99,,2014-09-20 16:33:00,
2014-09-20 09:44:00,60.0,57.0,29.92,South,180,2.0,-999.0,90,-99.99,,,-99.99,,2014-09-20 16:44:00,
2014-09-20 09:54:00,60.0,57.0,29.93,SSW,195,3.0,-999.0,90,-99.99,,,-99.99,,2014-09-20 16:54:00,
2014-09-20 10:03:00,60.0,57.0,29.93,SSW,195,3.0,-999.0,90,-99.99,,,-99.99,,2014-09-20 17:03:00,
2014-09-20 10:23:00,60.0,57.0,29.93,SSW,201,4.0,-999.0,90,-99.99,,,-99.99,,2014-09-20 17:23:00,
2014-09-20 10:33:00,60.0,57.0,29.93,SSW,201,4.0,-999.0,90,-99.99,,,-99.99,,2014-09-20 17:33:00,
2014-09-20 10:43:00,60.0,57.0,29.93,SSW,201,4.0,-999.0,90,-99.99,,,-99.99,,2014-09-20 17:43:00,
2014-09-20 10:53:00,61.0,58.0,29.93,South,184,3.0,-999.0,90,-99.99,,,-99.99,,2014-09-20 17:53:00,
2014-09-20 11:03:00,61.0,58.0,29.93,South,184,3.0,-999.0,90,-99.99,,,-99.99,,2014-09-20 18:03:00,
2014-09-20 11:22:00,62.0,59.0,29.94,WSW,248,4.0,-999.0,89,-99.99,,,-99.99,,2014-09-20 18:22:00,
2014-09-20 11:33:00,62.0,59.0,29.94,WSW,248,4.0,-999.0,89,-99.99,,,-99.99,,2014-09-20 18:33:00,
2014-09-20 11:42:00,62.0,59.0,29.94,WSW,248,4.0,-999.0,89,-99.99,,,-99.99,,2014-09-20 18:42:00,
2014-09-20 11:52:00,63.0,60.0,29.93,SSW,202,5.0,-999.0,90,-99.99,,,-99.99,,2014-09-20 18:52:00,
2014-09-20 12:02:00,63.0,60.0,29.93,SSW,202,5.0,-999.0,90,-99.99,,,-99.99,,2014-09-20 19:02:00,
2014-09-20 12:12:00,63.0,60.0,29.93,SSW,202,5.0,-999.0,90,-99.99,,,-99.99,,2014-09-20 19:12:00,
2014-09-20 12:22:00,63.0,60.0,29.93,SW,232,4.0,-999.0,90,-99.99,,,-99.99,,2014-09-20 19:22:00,
2014-09-20 12:32:00,63.0,60.0,29.93,SW,232,4.0,-999.0,90,-99.99,,,-99.99,,2014-09-20 19:32:00,
2014-09-20 12:42:00,63.0,60.0,29.93,SW,232,4.0,-999.0,90,-99.99,,,-99.99,,2014-09-20 19:42:00,
2014-09-20 12:52:00,63.0,60.0,29.93,WSW,244,7.0,-999.0,90,-99.99,,,-99.99,,2014-09-20 19:52:00,
2014-09-20 13:02:00,63.0,60.0,29.93,WSW,244,7.0,-999.0,90,-99.99,,,-99.99,,2014-09-20 20:02:00,
2014-09-20 13:22:00,63.0,60.0,29.93,SSW,209,10.0,-999.0,90,-99.99,,,-99.99,,2014-09-20 20:22:00,
2014-09-20 13:33:00,63.0,60.0,29.93,SSW,209,10.0,-999.0,90,-99.99,,,-99.99,,2014-09-20 20:33:00,
2014-09-20 13:42:00,63.0,60.0,29.93,SSW,209,10.0,-999.0,90,-99.99,,,-99.99,,2014-09-20 20:42:00,
2014-09-20 13:52:00,62.0,59.0,29.92,SW,234,11.0,-999.0,90,-99.99,,,-99.99,,2014-09-20 20:52:00,
2014-09-20 14:02:00,62.0,59.0,29.92,SW,234,11.0,-999.0,90,-99.99,,,-99.99,,2014-09-20 21:02:00,
2014-09-20 14:22:00,62.0,59.0,29.91,SSW,213,9.0,-999.0,90,-99.99,,,-99.99,,2014-09-20 21:22:00,
2014-09-20 14:33:00,62.0,59.0,29.91,SSW,213,9.0,-999.0,90,-99.99,,,-99.99,,2014-09-20 21:33:00,
2014-09-20 14:54:00,63.0,60.0,29.90,SW,217,10.0,-999.0,90,-99.99,,,-99.99,,2014-09-20 21:54:00,
2014-09-20 15:04:00,63.0,60.0,29.90,SW,217,10.0,-999.0,90,-99.99,,,-99.99,,2014-09-20 22:04:00,
2014-09-20 15:23:00,63.0,60.0,29.89,SW,230,9.0,-999.0,90,-99.99,,,-99.99,,2014-09-20 22:23:00,
2014-09-20 15:33:00,63.0,60.0,29.89,SW,230,9.0,-999.0,90,-99.99,,,-99.99,,2014-09-20 22:33:00,
2014-09-20 15:53:00,63.0,60.0,29.89,SW,222,9.0,-999.0,89,-99.99,,,-99.99,,2014-09-20 22:53:00,
2014-09-20 16:03:00,63.0,60.0,29.89,SW,222,9.0,-999.0,89,-99.99,,,-99.99,,2014-09-20 23:03:00,
2014-09-20 16:23:00,63.0,60.0,29.88,SW,225,11.0,-999.0,89,-99.99,,,-99.99,,2014-09-20 23:23:00,
2014-09-20 16:33:00,63.0,60.0,29.88,SW,225,11.0,-999.0,89,-99.99,,,-99.99,,2014-09-20 23:33:00,
2014-09-20 16:43:00,63.0,60.0,29.88,SW,225,11.0,-999.0,89,-99.99,,,-99.99,,2014-09-20 23:43:00,
2014-09-20 16:53:00,63.0,60.0,29.88,WSW,249,13.0,-999.0,89,-99.99,,,-99.99,,2014-09-20 23:53:00,
2014-09-20 17:02:00,63.0,60.0,29.88,WSW,249,13.0,-999.0,89,-99.99,,,-99.99,,2014-09-21 00:02:00,
2014-09-20 17:22:00,63.0,60.0,29.88,SW,219,13.0,-999.0,89,-99.99,,,-99.99,,2014-09-21 00:22:00,
2014-09-20 17:32:00,63.0,60.0,29.88,SW,219,13.0,-999.0,89,-99.99,,,-99.99,,2014-09-21 00:32:00,
2014-09-20 17:42:00,63.0,60.0,29.88,SW,219,13.0,-999.0,89,-99.99,,,-99.99,,2014-09-21 00:42:00,
2014-09-20 17:53:00,62.0,59.0,29.87,WSW,249,12.0,-999.0,89,-99.99,,,-99.99,,2014-09-21 00:53:00,
2014-09-20 18:02:00,62.0,59.0,29.87,WSW,249,12.0,-999.0,89,-99.99,,,-99.99,,2014-09-21 01:02:00,
2014-09-20 18:12:00,62.0,59.0,29.87,WSW,249,12.0,-999.0,89,-99.99,,,-99.99,,2014-09-21 01:12:00,
2014-09-20 18:21:00,62.0,59.0,29.87,SSW,210,13.0,-999.0,90,-99.99,,,-99.99,,2014-09-21 01:21:00,
2014-09-20 18:32:00,62.0,59.0,29.87,SSW,210,13.0,-999.0,90,-99.99,,,-99.99,,2014-09-21 01:32:00,
2014-09-20 18:42:00,62.0,59.0,29.87,SSW,210,13.0,-999.0,90,-99.99,,,-99.99,,2014-09-21 01:42:00,
2014-09-20 18:53:00,62.0,59.0,29.88,SW,223,12.0,-999.0,90,-99.99,,,-99.99,,2014-09-21 01:53:00,
2014-09-20 19:02:00,62.0,59.0,29.88,SW,223,12.0,-999.0,90,-99.99,,,-99.99,,2014-09-21 02:02:00,
2014-09-20 19:12:00,62.0,59.0,29.88,SW,223,12.0,-999.0,90,-99.99,,,-99.99,,2014-09-21 02:12:00,
2014-09-20 19:22:00,62.0,59.0,29.90,West,273,7.0,-999.0,90,-99.99,,,-99.99,,2014-09-21 02:22:00,
2014-09-20 19:32:00,62.0,59.0,29.90,West,273,7.0,-999.0,90,-99.99,,,-99.99,,2014-09-21 02:32:00,
2014-09-20 19:42:00,62.0,59.0,29.90,West,273,7.0,-999.0,90,-99.99,,,-99.99,,2014-09-21 02:42:00,
2014-09-20 19:52:00,62.0,59.0,29.90,SE,129,7.0,-999.0,90,-99.99,,,-99.99,,2014-09-21 02:52:00,
2014-09-20 20:02:00,62.0,59.0,29.90,SE,129,7.0,-999.0,90,-99.99,,,-99.99,,2014-09-21 03:02:00,
2014-09-20 20:22:00,62.0,59.0,29.91,SSW,201,7.0,-999.0,90,-99.99,,,-99.99,,2014-09-21 03:22:00,
2014-09-20 20:34:00,62.0,59.0,29.91,SSW,201,7.0,-999.0,90,-99.99,,,-99.99,,2014-09-21 03:34:00,
2014-09-20 20:44:00,62.0,59.0,29.91,SSW,201,7.0,-999.0,90,-99.99,,,-99.99,,2014-09-21 03:44:00,
2014-09-20 20:54:00,62.0,59.0,29.92,SSE,154,4.0,-999.0,90,-99.99,,,-99.99,,2014-09-21 03:54:00,
2014-09-20 21:02:00,-999.0,-99.9,29.92,SSE,154,4.0,-999.0,-999,-99.99,,,-99.99,,2014-09-21 04:02:00,
2014-09-20 21:14:00,62.0,59.0,29.92,SSE,154,4.0,-999.0,90,-99.99,,,-99.99,,2014-09-21 04:14:00,
2014-09-20 21:23:00,62.0,59.0,29.92,SSW,202,7.0,-999.0,90,-99.99,,,-99.99,,2014-09-21 04:23:00,
2014-09-20 21:34:00,62.0,59.0,29.92,SSW,202,7.0,-999.0,90,-99.99,,,-99.99,,2014-09-21 04:34:00,
2014-09-20 21:44:00,62.0,59.0,29.92,SSW,202,7.0,-999.0,90,-99.99,,,-99.99,,2014-09-21 04:44:00,
2014-09-20 21:53:00,61.0,58.0,29.91,WSW,241,7.0,-999.0,90,-99.99,,,-99.99,,2014-09-21 04:53:00,
2014-09-20 22:03:00,61.0,58.0,29.91,WSW,241,7.0,-999.0,90,-99.99,,,-99.99,,2014-09-21 05:03:00,
2014-09-20 22:13:00,61.0,58.0,29.91,WSW,241,7.0,-999.0,90,-99.99,,,-99.99,,2014-09-21 05:13:00,
2014-09-20 22:23:00,61.0,58.0,29.92,SW,219,7.0,-999.0,90,-99.99,,,-99.99,,2014-09-21 05:23:00,
2014-09-20 22:33:00,61.0,58.0,29.92,SW,219,7.0,-999.0,90,-99.99,,,-99.99,,2014-09-21 05:33:00,
2014-09-20 22:43:00,61.0,58.0,29.92,SW,219,7.0,-999.0,90,-99.99,,,-99.99,,2014-09-21 05:43:00,
2014-09-20 22:52:00,61.0,58.0,29.93,SSW,198,8.0,-999.0,90,-99.99,,,-99.99,,2014-09-21 05:52:00,
2014-09-20 23:02:00,61.0,58.0,29.93,SSW,198,8.0,-999.0,90,-99.99,,,-99.99,,2014-09-21 06:02:00,
2014-09-20 23:12:00,61.0,58.0,29.93,SSW,198,8.0,-999.0,90,-99.99,,,-99.99,,2014-09-21 06:12:00,
2014-09-20 23:22:00,61.0,58.0,29.92,SW,235,8.0,-999.0,90,-99.99,,,-99.99,,2014-09-21 06:22:00,